Flag for U.S.A. Weather past 2 weeks in Newark, New Jersey, U.S.A.

Now
82 °F

Scattered clouds.


Feels Like: 85 °F
Forecast: 71 / 84 °F
Wind: 12 mph from Northeast

Location: Newark International Airport

Current Time: Sep 4, 2015 at 11:07:23 AM

Latest Report: Sep 4, 2015 at 9:51 AM


Visibility: 10 mi

Pressure: 30.04 "Hg

Humidity: 63%

Dew point: 68 °F

Location of NewarkLocation

Historic Weather in Newark — Graph

°F

Newark temperature yesterday

Maximum temperature yesterday: 93 °F (at 1:51 PM)
Minimum temperature yesterday: 74 °F (at 2:51 AM)
Average temperature yesterday: 84 °F

Past Weeks' High & Low Weather Summary

 TemperatureHumidityPressure
High93 °F (Aug 31, 4:51 PM)94% (Aug 21, 3:02 AM)30.22 "Hg (Aug 21, 3:02 AM)
Low63 °F (Aug 28, 5:51 AM)27% (Aug 25, 4:51 PM)29.80 "Hg (Aug 25, 3:51 PM)
Average78 °F58%30.00 "Hg
* Reported Aug 20 9:51 AM — Sep 4 9:51 AM, Newark, Weather by CustomWeather, © 2015

Note: Actual official high and low records may vary slightly from our data, if they occured in-between our weather recording intervals... More about our weather records

Advertising

Newark weather history for previous 24 hours

 ConditionsComfort  
Time TempWeatherWind HumidityBarometerVisibility
9:51 AM
Fri, Sep 4
82 °FScattered clouds.12 mph63%30.04 "Hg10 mi
8:51 AM80 °FPassing clouds.13 mph67%30.02 "Hg10 mi
7:51 AM77 °FPassing clouds.8 mph74%30.01 "Hg10 mi
6:51 AM75 °FPassing clouds.12 mph79%29.98 "Hg10 mi
5:51 AM76 °FPassing clouds.10 mph74%29.95 "Hg10 mi
4:51 AM76 °FPassing clouds.12 mph74%29.93 "Hg10 mi
3:51 AM78 °FPassing clouds.9 mph69%29.91 "Hg10 mi
2:51 AM79 °FPassing clouds.10 mph65%29.90 "Hg10 mi
1:51 AM79 °FPassing clouds.7 mph65%29.90 "Hg10 mi
12:51 AM80 °FPartly cloudy.7 mph62%29.90 "Hg10 mi
11:51 PM
Thu, Sep 3
83 °FPartly cloudy.6 mph57%29.89 "Hg10 mi
10:51 PM83 °FPartly cloudy.3 mph57%29.88 "Hg10 mi
9:51 PM83 °FPartly cloudy.6 mph61%29.88 "Hg10 mi
8:51 PM85 °FPassing clouds.3 mph53%29.86 "Hg10 mi
7:51 PM86 °FBroken clouds.5 mph49%29.83 "Hg10 mi
6:51 PM89 °FPartly sunny.6 mph42%29.82 "Hg10 mi
5:51 PM92 °FPartly sunny.9 mph36%29.81 "Hg10 mi
4:51 PM93 °FPartly sunny.12 mph32%29.81 "Hg10 mi
3:51 PM93 °FPartly sunny.8 mph32%29.82 "Hg10 mi
2:51 PM93 °FPartly sunny.7 mph33%29.83 "Hg10 mi
1:51 PM93 °FScattered clouds.10 mph34%29.84 "Hg10 mi
12:51 PM91 °FPassing clouds.9 mph38%29.85 "Hg10 mi
11:51 AM89 °FPassing clouds.8 mph41%29.87 "Hg10 mi
Weather by CustomWeather, © 2015

See weather overviewHow to use our weather pages